User: anonymous   Login
Location: Vancouver
(49.2500°N, 123.1330°W)
Time: 02:23:15
(UTC-07:00)
Language:

YAOGAN 6 - Orbit

View from above orbital plane
View from above orbital plane
View from above satellite
View from above satellite

Ground track
Ground track

The orbit data is extracted from the following two-line orbital elements,

1 34839U 09021A   14295.85447334  .00006097  00000-0  27589-3 0  1367
2 34839 097.2734 007.1856 0033615 140.7567 311.5819 15.20742558305102
Epoch (UTC): 22 October 2014 20:30:26
Eccentricity: 0.0033615
inclination: 97.2734°
perigee height: 480 km
apogee height: 527 km
right ascension of ascending node: 7.1856°
argument of perigee: 140.7567°
revolutions per day: 15.20742558
mean anomaly at epoch: 311.5819°
orbit number at epoch: 30510

The dashed part of the orbit path shows where the satellite is in the earth's shadow,  

DLR